Flag for U.S.A. Weather past 2 weeks in Cambridge, Massachusetts, U.S.A.

Now
73 °F

Clear.


Feels Like: 71 °F
Forecast: 71 / 87 °F
Wind: 5 mph from South

Location: Logan International Airport

Current Time: Sep 2, 2014 at 3:32:42 AM

Latest Report: Sep 2, 2014 at 2:54 AM


Visibility: 9 mi

Pressure: 29.90 "Hg

Humidity: 90%

Dew point: 70 °F

Location of CambridgeLocation

Historic Weather in Cambridge — Graph

°F

Cambridge temperature yesterday

Maximum temperature yesterday: 84 °F (at 11:54 AM)
Minimum temperature yesterday: 72 °F (at 5:54 AM)
Average temperature yesterday: 77 °F

Past Weeks' High & Low Weather Summary

 TemperatureHumidityPressure
High90 °F (Aug 27, 1:54 PM)100% (Aug 31, 11:01 PM)30.31 "Hg (Aug 31, 11:01 PM)
Low58 °F (Aug 30, 4:54 AM)31% (Aug 28, 5:54 PM)29.78 "Hg (Aug 18, 3:54 PM)
Average70 °F69%30.03 "Hg
* Reported Aug 18 1:54 AM — Sep 2 1:54 AM, Cambridge, Weather by CustomWeather, © 2014

Note: Actual official high and low records may vary slightly from our data, if they occured in-between our weather recording intervals... More about our weather records

Advertising

Cambridge weather history for previous 24 hours

 ConditionsComfort  
Time TempWeatherWind HumidityBarometerVisibility
1:54 AM
Sep 2
75 °FPassing clouds.10 mph88%29.91 "Hg10 mi
12:54 AM77 °FPassing clouds.12 mph82%29.93 "Hg10 mi
11:54 PM
Sep 1
77 °FPassing clouds.10 mph82%29.93 "Hg10 mi
10:54 PM78 °FPassing clouds.9 mph76%29.93 "Hg10 mi
9:54 PM76 °FPassing clouds.6 mph80%29.93 "Hg10 mi
8:54 PM77 °FPassing clouds.No wind77%29.93 "Hg10 mi
7:54 PM78 °FPassing clouds.5 mph76%29.91 "Hg10 mi
6:54 PM79 °FScattered clouds.3 mph74%29.90 "Hg10 mi
5:54 PM80 °FScattered clouds.3 mph71%29.90 "Hg10 mi
4:54 PM79 °FBroken clouds.8 mph74%29.91 "Hg10 mi
3:54 PM80 °FBroken clouds.12 mph74%29.91 "Hg10 mi
2:54 PM80 °FPartly sunny.13 mph71%29.93 "Hg10 mi
1:54 PM80 °FPartly sunny.10 mph64%29.93 "Hg10 mi
12:54 PM84 °FBroken clouds.8 mph57%29.93 "Hg10 mi
11:54 AM84 °FScattered clouds.8 mph57%29.95 "Hg10 mi
10:54 AM83 °FScattered clouds.5 mph61%29.96 "Hg10 mi
9:54 AM81 °FScattered clouds.5 mph67%29.97 "Hg10 mi
8:54 AM77 °FBroken clouds.6 mph79%29.98 "Hg10 mi
7:54 AM73 °FBroken clouds.8 mph90%29.98 "Hg10 mi
6:54 AM73 °FMostly cloudy.8 mph88%29.98 "Hg10 mi
5:54 AM72 °FOvercast.8 mph94%29.97 "Hg10 mi
4:54 AM72 °FPassing clouds.8 mph93%29.96 "Hg10 mi
3:54 AM72 °FPassing clouds.9 mph93%29.95 "Hg10 mi
Weather by CustomWeather, © 2014

See weather overviewHow to use our weather pages